SCP
0 0 0 0 0 0 0 0 0 0 0 0 0 0 0 0 0 0 0 0 0 0 0 0 0 0 0 0 0 0 0 0 0 0 0 0 0 0
0 0 0 0 0 0 0 0 0 0 0 0 0 0 0 0 0 0 0 0 0 0 0 0 0 0 0 0 0 0 0 0 0 0 0 0 0 0
0 0 0 0 0 0 0 0 0 0 0 0 0 0 0 0 0 0 0 0 0 0 0 0 0 0 0 0 0 0 0 0 0 0 0 0 0 0
0 0 0 0 0 0 0 0 0 0 0 0 0 0 0 0 0 0 0 0 0 0 0 0 0 0 0 0 0 0 0 0 0 0 0 0 0 0
0 0 0 0 0 0 0 0 0 0 0 0 0 0 0 0 0 0 0 0 0 0 0 0 0 0 0 0 0 0 0 0 0 0 0 0 0 0
0 0 0 0 0 0 0 0 0 0 0 0 0 0 0 0 0 0 0 0 0 0 0 0 0 0 0 0 0 0 0 0 0 0 0 0 0 0
0 0 0 0 0 0 0 0 0 0 0 0 0 0 0 0 0 -0 -0 0 0 0 0 0 0 0 0 0 0 0 0 0 0 0 0 0 0 0
0 0 0 0 0 0 0 0 0 0 0 0 0 0 -0 -0 -0 0 0 0 0 0 0 0 0 0 0 0 0 0 0 0 0 0 0 0 0 0
0 0 0 0 0 0 0 0 0 0 0 0 -0 -0 -0 0 0 0 0 0 -0 0 0 0 0 0 0 0 0 0 0 0 0 0 0 0 0 0
0 0 0 0 0 0 -0 -0 -0 -0 -0 -0 -0 0 0 0 0 0 0 0 0 0 0 0 0 0 0 0 0 0 0 0 0 0 0 0 0 0
0 -0 -0 -0 -0 -0 -0 -0 -0 -0 -0 -0 -0 -0 -0 0 0 0 0 0 0 0 0 0 0 0 0 0 0 0 0 0 0 0 0 0 0 0
-0 -0 -0 -0 -0 -0 -0 -0 -0 -0 -0 0 0 0 0 0 -0 0 0 0 0 0 0 0 0 0 0 0 0 0 0 0 0 0 0 0 0 0
0 -0 -0 -0 -0 -0 -0 -0 -0 -0 -0 -0 -0 -0 -0 -0 0 -0 0 0 0 0 0 0 0 0 0 0 0 0 0 0 0 0 0 0 0 0
-0 -0 -0 0 -0 0 0 -0 0 0 -0 0 0 -0 0 0 0 0 0 0 0 0 0 0 0 0 0 0 0 0 0 0 0 0 0 0 0 0
-0 -0 -0 0 0 0 0 0 0 -0 -0 -0 -0 -0 -0 -0 0 0 0 0 0 0 0 0 0 0 0 0 0 0 0 0 0 0 0 0 0 0
0 0 0 0 0 0 0 0 0 0 0 0 0 0 0 0 0 0 0 0 0 0 0 0 0 0 0 0 0 0 0 0 0 0 0 0 0 0
0 0 0 0 0 0 0 0 -0 0 0 0 0 0 0 0 0 0 0 0 0 0 0 0 0 1 0 0 0 0 0 0 0 0 0 0 0 -0
0 -0 -0 -0 -0 -0 0 0 0 0 0 0 0 0 0 0 0 0 0 0 0 0 0 0 0 0 0 0 0 0 0 0 0 0 0 -0 -0 0
0 -0 -0 0 0 -0 0 0 0 0 0 0 0 0 0 0 0 0 0 0 0 0 0 0 0 0 0 0 0 0 0 0 0 -0 -0 -0 -0 -0
-0 -0 0 -0 -0 0 0 0 0 0 0 0 0 0 0 0 0 0 0 0 0 0 0 0 0 0 0 0 0 0 0 0 -0 -0 -0 -0 -0 0
0 0 0 -0 -0 -0 0 0 0 0 0 0 0 0 0 0 0 0 0 0 0 0 0 0 0 0 0 0 0 -0 -0 -0 -0 -0 -0 -0 0 0
0 0 0 0 0 0 0 0 0 0 0 0 0 0 0 0 0 0 0 0 0 0 0 0 0 0 0 0 -0 -0 0 0 -0 0 0 0 0 0
-0 -0 -0 0 0 0 0 0 0 0 0 0 0 0 0 0 0 0 0 0 0 0 0 0 0 0 0 -0 -0 0 0 0 0 -0 0 0 0 0
Wind_Speed_500mb
90 89 94 98 89 84 59 53 81 58 66 59 57 54 49 36 28 22 25 14 11 11 10 9 9 9 9 8 10 14 19 20 25 28 31 34 37 40
77 88 101 100 97 79 69 70 65 74 69 76 70 65 60 51 38 30 22 18 13 13 13 12 13 13 16 17 17 18 20 22 26 29 33 35 38 42
81 87 89 87 93 95 66 62 67 73 68 75 75 68 52 40 32 35 29 21 17 15 15 14 20 22 21 21 21 22 25 26 28 31 34 39 42 46
61 57 55 66 64 60 45 61 55 55 57 65 60 62 49 43 35 28 24 14 20 24 21 16 26 25 27 27 28 25 23 25 26 30 31 35 42 50
44 50 50 41 40 42 43 49 46 46 55 67 55 39 33 43 31 22 21 18 28 37 21 22 28 32 30 23 24 25 28 31 33 34 38 44 49 53
34 38 42 43 43 47 37 45 55 51 39 44 26 19 20 27 25 23 21 24 19 12 21 31 35 39 30 28 32 34 38 42 42 46 54 59 64 65
31 34 35 29 33 28 31 41 43 44 41 29 17 22 21 25 31 22 32 19 18 18 33 39 32 36 43 45 42 41 45 51 54 58 66 72 75 76
23 26 28 42 33 33 27 22 19 34 31 31 26 24 26 32 31 29 25 25 32 24 27 29 36 47 50 54 50 45 48 56 62 69 76 78 79 81
30 30 25 26 23 26 25 28 30 33 34 28 25 33 36 36 36 34 34 35 38 41 49 51 50 56 48 39 41 46 54 64 69 75 79 80 81 85
24 28 25 32 38 34 37 31 28 28 36 34 35 30 28 32 34 41 45 47 53 51 41 52 35 48 42 43 47 52 57 68 79 81 79 78 80 88
21 29 29 23 21 19 21 23 30 34 37 36 38 38 39 43 43 44 42 40 43 40 34 49 48 47 54 62 65 65 74 71 73 80 78 71 78 91
24 11 12 20 24 29 28 27 28 25 22 22 24 23 24 27 37 44 45 54 58 57 45 41 48 52 72 72 53 52 74 74 75 76 81 78 73 80
14 22 26 34 33 33 33 29 24 21 25 23 27 30 35 37 30 29 30 35 41 51 50 42 49 60 68 89 86 78 72 73 75 78 79 84 83 82
17 12 17 18 17 23 25 24 28 31 33 33 33 35 35 35 35 38 43 46 48 52 50 50 59 65 75 87 94 92 78 74 74 86 86 78 82 98
36 27 22 24 31 28 29 29 33 37 39 41 43 39 34 31 37 41 47 53 63 63 64 66 70 73 79 89 92 92 78 96 77 86 87 92 91 96
30 27 21 20 20 25 32 36 39 39 41 39 32 28 29 36 38 37 44 52 57 64 64 63 66 72 83 85 80 84 92 88 94 107 96 87 99 107
25 25 21 21 23 27 28 32 29 22 23 28 31 32 36 37 37 38 45 53 59 62 66 62 55 60 76 76 78 87 90 91 100 91 85 98 106 113
28 23 25 35 26 26 24 26 25 27 26 29 33 34 40 43 46 49 51 55 66 67 63 64 69 76 79 89 78 84 82 88 97 90 91 93 99 111
35 31 28 29 35 36 35 37 40 41 40 42 41 42 46 45 45 39 41 57 67 71 71 66 65 74 69 76 98 79 82 91 88 83 86 93 113 120
50 44 40 39 41 41 38 36 35 36 39 43 45 46 36 34 36 39 38 40 47 61 80 86 72 73 72 79 86 84 75 70 76 93 114 114 123 131
33 34 45 43 42 41 41 41 42 45 43 39 37 40 40 49 55 53 48 62 77 84 80 82 79 72 73 65 68 74 72 78 88 100 97 103 128 123
40 43 50 45 37 33 40 43 48 47 49 48 35 27 32 43 49 56 64 73 75 70 67 61 47 49 51 58 69 79 91 106 91 87 104 98 101 101
44 48 55 45 45 46 50 46 28 24 21 29 30 38 52 62 69 67 55 57 50 46 41 46 52 52 60 62 71 84 89 86 108 112 108 106 105 105
Wind_Direction_500mb
248 245 245 244 239 240 236 218 204 180 185 195 186 192 199 212 224 223 209 208 220 225 229 237 247 262 262 276 289 297 305 307 309 309 312 312 313 314
261 259 254 246 241 236 230 224 220 204 183 185 185 186 191 200 213 225 233 232 230 235 237 247 253 259 274 284 294 296 304 311 305 306 304 309 309 312
247 247 238 235 231 235 233 224 218 200 194 180 189 193 196 193 194 213 225 248 233 244 242 255 285 288 289 290 291 294 294 298 300 308 312 317 319 319
244 241 236 232 231 234 232 204 199 181 184 165 180 177 192 195 190 201 224 219 283 262 273 282 285 283 284 285 283 286 287 287 298 302 310 311 316 316
235 233 229 219 201 191 193 191 184 179 172 169 172 180 172 188 210 210 219 232 237 257 272 287 288 296 300 292 288 286 285 292 294 292 304 310 311 312
184 182 175 171 162 152 143 127 136 142 156 168 147 158 192 187 210 209 225 243 258 252 277 274 286 291 298 297 293 292 299 299 298 302 305 308 309 310
191 188 175 160 162 156 155 137 126 129 141 151 165 170 163 182 213 232 238 239 269 245 255 272 279 293 293 296 298 296 291 296 302 303 304 305 305 307
211 212 215 221 233 251 249 225 163 167 150 147 154 173 205 213 220 230 239 240 261 259 255 269 266 268 274 278 287 292 295 297 295 296 299 300 302 304
127 132 132 133 134 134 133 137 139 143 155 163 192 210 218 224 217 225 241 242 252 249 265 261 268 278 282 285 287 286 283 286 287 291 295 297 298 299
129 125 136 154 153 143 145 157 171 188 201 210 212 213 210 207 223 235 244 255 259 264 272 273 291 288 295 290 284 282 281 282 287 291 291 292 293 295
156 160 155 153 173 177 199 209 219 220 212 219 223 243 243 244 247 252 255 259 266 273 274 280 291 283 278 277 277 277 283 287 284 282 289 290 288 292
171 180 157 180 184 197 197 200 212 215 226 238 240 254 265 273 260 255 259 259 263 271 279 265 275 279 282 283 288 283 287 296 298 293 293 297 295 293
224 241 235 208 205 206 199 208 229 239 239 247 262 263 270 277 272 271 274 273 280 281 296 295 269 274 278 287 293 295 291 292 291 293 295 296 292 294
253 228 257 262 246 234 233 243 248 252 249 246 247 255 268 275 284 283 282 283 282 284 288 279 278 283 285 287 289 301 291 290 292 293 297 295 289 294
227 229 233 235 245 243 249 258 261 258 257 256 256 259 263 267 272 272 267 276 288 288 288 287 283 284 282 282 286 292 290 296 296 299 296 293 292 292
231 242 248 253 253 256 253 259 261 256 254 255 259 268 277 276 270 270 277 279 277 278 280 281 283 284 284 286 287 282 289 291 295 304 300 291 292 292
251 251 238 255 273 278 265 262 260 263 268 261 260 262 262 264 268 276 279 281 279 283 286 288 289 290 291 288 286 287 289 290 298 301 293 293 295 297
239 246 242 250 263 262 262 263 259 261 264 259 261 267 268 267 270 275 275 279 285 288 294 294 294 294 293 287 288 293 290 291 302 300 297 296 296 298
238 235 238 247 249 251 250 249 250 261 269 260 262 265 267 270 280 275 276 281 289 290 288 288 294 303 297 295 301 297 299 303 306 301 298 297 298 299
237 236 242 245 247 252 251 251 252 255 258 260 263 268 264 266 279 284 287 282 279 286 294 302 300 299 299 298 300 303 307 302 301 301 304 306 303 309
250 246 233 231 236 242 249 251 250 253 258 261 261 266 277 278 285 291 289 292 294 295 296 298 301 302 302 305 302 302 303 302 304 307 307 303 305 309
231 240 252 257 254 238 237 250 257 253 262 269 269 277 277 277 281 285 291 295 297 302 304 308 317 319 314 309 305 306 308 311 311 303 307 314 306 298
235 233 238 244 257 256 250 250 248 263 241 246 246 260 274 286 292 298 299 302 306 310 318 319 321 318 308 309 308 309 310 311 313 319 324 334 331 324
Wind_Speed_850mb
90 89 94 98 89 84 59 53 81 58 66 59 57 54 49 36 28 22 25 14 11 11 10 9 9 9 9 8 10 14 19 20 25 28 31 34 37 40
77 88 101 100 97 79 69 70 65 74 69 76 70 65 60 51 38 30 22 18 13 13 13 12 13 13 16 17 17 18 20 22 26 29 33 35 38 42
81 87 89 87 93 95 66 62 67 73 68 75 75 68 52 40 32 35 29 21 17 15 15 14 20 22 21 21 21 22 25 26 28 31 34 39 42 46
61 57 55 66 64 60 45 61 55 55 57 65 60 62 49 43 35 28 24 14 20 24 21 16 26 25 27 27 28 25 23 25 26 30 31 35 42 50
44 50 50 41 40 42 43 49 46 46 55 67 55 39 33 43 31 22 21 18 28 37 21 22 28 32 30 23 24 25 28 31 33 34 38 44 49 53
34 38 42 43 43 47 37 45 55 51 39 44 26 19 20 27 25 23 21 24 19 12 21 31 35 39 30 28 32 34 38 42 42 46 54 59 64 65
31 34 35 29 33 28 31 41 43 44 41 29 17 22 21 25 31 22 32 19 18 18 33 39 32 36 43 45 42 41 45 51 54 58 66 72 75 76
23 26 28 42 33 33 27 22 19 34 31 31 26 24 26 32 31 29 25 25 32 24 27 29 36 47 50 54 50 45 48 56 62 69 76 78 79 81
30 30 25 26 23 26 25 28 30 33 34 28 25 33 36 36 36 34 34 35 38 41 49 51 50 56 48 39 41 46 54 64 69 75 79 80 81 85
24 28 25 32 38 34 37 31 28 28 36 34 35 30 28 32 34 41 45 47 53 51 41 52 35 48 42 43 47 52 57 68 79 81 79 78 80 88
21 29 29 23 21 19 21 23 30 34 37 36 38 38 39 43 43 44 42 40 43 40 34 49 48 47 54 62 65 65 74 71 73 80 78 71 78 91
24 11 12 20 24 29 28 27 28 25 22 22 24 23 24 27 37 44 45 54 58 57 45 41 48 52 72 72 53 52 74 74 75 76 81 78 73 80
14 22 26 34 33 33 33 29 24 21 25 23 27 30 35 37 30 29 30 35 41 51 50 42 49 60 68 89 86 78 72 73 75 78 79 84 83 82
17 12 17 18 17 23 25 24 28 31 33 33 33 35 35 35 35 38 43 46 48 52 50 50 59 65 75 87 94 92 78 74 74 86 86 78 82 98
36 27 22 24 31 28 29 29 33 37 39 41 43 39 34 31 37 41 47 53 63 63 64 66 70 73 79 89 92 92 78 96 77 86 87 92 91 96
30 27 21 20 20 25 32 36 39 39 41 39 32 28 29 36 38 37 44 52 57 64 64 63 66 72 83 85 80 84 92 88 94 107 96 87 99 107
25 25 21 21 23 27 28 32 29 22 23 28 31 32 36 37 37 38 45 53 59 62 66 62 55 60 76 76 78 87 90 91 100 91 85 98 106 113
28 23 25 35 26 26 24 26 25 27 26 29 33 34 40 43 46 49 51 55 66 67 63 64 69 76 79 89 78 84 82 88 97 90 91 93 99 111
35 31 28 29 35 36 35 37 40 41 40 42 41 42 46 45 45 39 41 57 67 71 71 66 65 74 69 76 98 79 82 91 88 83 86 93 113 120
50 44 40 39 41 41 38 36 35 36 39 43 45 46 36 34 36 39 38 40 47 61 80 86 72 73 72 79 86 84 75 70 76 93 114 114 123 131
33 34 45 43 42 41 41 41 42 45 43 39 37 40 40 49 55 53 48 62 77 84 80 82 79 72 73 65 68 74 72 78 88 100 97 103 128 123
40 43 50 45 37 33 40 43 48 47 49 48 35 27 32 43 49 56 64 73 75 70 67 61 47 49 51 58 69 79 91 106 91 87 104 98 101 101
44 48 55 45 45 46 50 46 28 24 21 29 30 38 52 62 69 67 55 57 50 46 41 46 52 52 60 62 71 84 89 86 108 112 108 106 105 105
Wind_Direction_850mb
248 245 245 244 239 240 236 218 204 180 185 195 186 192 199 212 224 223 209 208 220 225 229 237 247 262 262 276 289 297 305 307 309 309 312 312 313 314
261 259 254 246 241 236 230 224 220 204 183 185 185 186 191 200 213 225 233 232 230 235 237 247 253 259 274 284 294 296 304 311 305 306 304 309 309 312
247 247 238 235 231 235 233 224 218 200 194 180 189 193 196 193 194 213 225 248 233 244 242 255 285 288 289 290 291 294 294 298 300 308 312 317 319 319
244 241 236 232 231 234 232 204 199 181 184 165 180 177 192 195 190 201 224 219 283 262 273 282 285 283 284 285 283 286 287 287 298 302 310 311 316 316
235 233 229 219 201 191 193 191 184 179 172 169 172 180 172 188 210 210 219 232 237 257 272 287 288 296 300 292 288 286 285 292 294 292 304 310 311 312
184 182 175 171 162 152 143 127 136 142 156 168 147 158 192 187 210 209 225 243 258 252 277 274 286 291 298 297 293 292 299 299 298 302 305 308 309 310
191 188 175 160 162 156 155 137 126 129 141 151 165 170 163 182 213 232 238 239 269 245 255 272 279 293 293 296 298 296 291 296 302 303 304 305 305 307
211 212 215 221 233 251 249 225 163 167 150 147 154 173 205 213 220 230 239 240 261 259 255 269 266 268 274 278 287 292 295 297 295 296 299 300 302 304
127 132 132 133 134 134 133 137 139 143 155 163 192 210 218 224 217 225 241 242 252 249 265 261 268 278 282 285 287 286 283 286 287 291 295 297 298 299
129 125 136 154 153 143 145 157 171 188 201 210 212 213 210 207 223 235 244 255 259 264 272 273 291 288 295 290 284 282 281 282 287 291 291 292 293 295
156 160 155 153 173 177 199 209 219 220 212 219 223 243 243 244 247 252 255 259 266 273 274 280 291 283 278 277 277 277 283 287 284 282 289 290 288 292
171 180 157 180 184 197 197 200 212 215 226 238 240 254 265 273 260 255 259 259 263 271 279 265 275 279 282 283 288 283 287 296 298 293 293 297 295 293
224 241 235 208 205 206 199 208 229 239 239 247 262 263 270 277 272 271 274 273 280 281 296 295 269 274 278 287 293 295 291 292 291 293 295 296 292 294
253 228 257 262 246 234 233 243 248 252 249 246 247 255 268 275 284 283 282 283 282 284 288 279 278 283 285 287 289 301 291 290 292 293 297 295 289 294
227 229 233 235 245 243 249 258 261 258 257 256 256 259 263 267 272 272 267 276 288 288 288 287 283 284 282 282 286 292 290 296 296 299 296 293 292 292
231 242 248 253 253 256 253 259 261 256 254 255 259 268 277 276 270 270 277 279 277 278 280 281 283 284 284 286 287 282 289 291 295 304 300 291 292 292
251 251 238 255 273 278 265 262 260 263 268 261 260 262 262 264 268 276 279 281 279 283 286 288 289 290 291 288 286 287 289 290 298 301 293 293 295 297
239 246 242 250 263 262 262 263 259 261 264 259 261 267 268 267 270 275 275 279 285 288 294 294 294 294 293 287 288 293 290 291 302 300 297 296 296 298
238 235 238 247 249 251 250 249 250 261 269 260 262 265 267 270 280 275 276 281 289 290 288 288 294 303 297 295 301 297 299 303 306 301 298 297 298 299
237 236 242 245 247 252 251 251 252 255 258 260 263 268 264 266 279 284 287 282 279 286 294 302 300 299 299 298 300 303 307 302 301 301 304 306 303 309
250 246 233 231 236 242 249 251 250 253 258 261 261 266 277 278 285 291 289 292 294 295 296 298 301 302 302 305 302 302 303 302 304 307 307 303 305 309
231 240 252 257 254 238 237 250 257 253 262 269 269 277 277 277 281 285 291 295 297 302 304 308 317 319 314 309 305 306 308 311 311 303 307 314 306 298
235 233 238 244 257 256 250 250 248 263 241 246 246 260 274 286 292 298 299 302 306 310 318 319 321 318 308 309 308 309 310 311 313 319 324 334 331 324